Year,Month,Day,Hour,Minute,Value (Times are PST for temperature in C)
2017,08,22,00,00,17.80
2017,08,22,00,01,17.80
2017,08,22,00,02,17.80
2017,08,22,00,03,17.70
2017,08,22,00,04,17.70
2017,08,22,00,05,17.70
2017,08,22,00,06,17.70
2017,08,22,00,07,17.70
2017,08,22,00,08,17.70
2017,08,22,00,09,17.60
2017,08,22,00,10,17.60
2017,08,22,00,11,17.60
2017,08,22,00,12,17.60
2017,08,22,00,13,17.60
2017,08,22,00,14,17.60
2017,08,22,00,15,17.60
2017,08,22,00,16,17.50
2017,08,22,00,17,17.50
2017,08,22,00,18,17.50
2017,08,22,00,19,17.50
2017,08,22,00,20,17.50
2017,08,22,00,21,17.40
2017,08,22,00,22,17.40
2017,08,22,00,23,17.40
2017,08,22,00,24,17.40
2017,08,22,00,25,17.40
2017,08,22,00,26,17.40
2017,08,22,00,27,17.40
2017,08,22,00,28,17.40
2017,08,22,00,29,17.30
2017,08,22,00,30,17.30
2017,08,22,00,31,17.30
2017,08,22,00,32,17.30
2017,08,22,00,33,17.30
2017,08,22,00,34,17.30
2017,08,22,00,35,17.30
2017,08,22,00,36,17.20
2017,08,22,00,37,17.20
2017,08,22,00,38,17.20
2017,08,22,00,39,17.20
2017,08,22,00,40,17.20
2017,08,22,00,41,17.20
2017,08,22,00,42,17.20
2017,08,22,00,43,17.20
2017,08,22,00,44,17.20
2017,08,22,00,45,17.10
2017,08,22,00,46,17.10
2017,08,22,00,47,17.10
2017,08,22,00,48,17.10
2017,08,22,00,49,17.10
2017,08,22,00,50,17.10
2017,08,22,00,51,17.00
2017,08,22,00,52,17.00
2017,08,22,00,53,17.00
2017,08,22,00,54,16.90
2017,08,22,00,55,16.90
2017,08,22,00,56,16.90
2017,08,22,00,57,16.90
2017,08,22,00,58,16.90
2017,08,22,00,59,16.80
2017,08,22,01,00,16.80
2017,08,22,01,01,16.80
2017,08,22,01,02,16.80
2017,08,22,01,03,16.80
2017,08,22,01,04,16.80
2017,08,22,01,05,16.70
2017,08,22,01,06,16.70
2017,08,22,01,07,16.70
2017,08,22,01,08,16.70
2017,08,22,01,09,16.70
2017,08,22,01,10,16.70
2017,08,22,01,11,16.70
2017,08,22,01,12,16.70
2017,08,22,01,13,16.60
2017,08,22,01,14,16.60
2017,08,22,01,15,16.60
2017,08,22,01,16,16.60
2017,08,22,01,17,16.60
2017,08,22,01,18,16.60
2017,08,22,01,19,16.60
2017,08,22,01,20,16.50
2017,08,22,01,21,16.50
2017,08,22,01,22,16.50
2017,08,22,01,23,16.50
2017,08,22,01,24,16.50
2017,08,22,01,25,16.50
2017,08,22,01,26,16.40
2017,08,22,01,27,16.40
2017,08,22,01,28,16.40
2017,08,22,01,29,16.40
2017,08,22,01,30,16.40
2017,08,22,01,31,16.40
2017,08,22,01,32,16.40
2017,08,22,01,33,16.40
2017,08,22,01,34,16.40
2017,08,22,01,35,16.40
2017,08,22,01,36,16.40
2017,08,22,01,37,16.40
2017,08,22,01,38,16.30
2017,08,22,01,39,16.30
2017,08,22,01,40,16.30
2017,08,22,01,41,16.30
2017,08,22,01,42,16.30
2017,08,22,01,43,16.30
2017,08,22,01,44,16.30
2017,08,22,01,45,16.30
2017,08,22,01,46,16.30
2017,08,22,01,47,16.20
2017,08,22,01,48,16.20
2017,08,22,01,49,16.20
2017,08,22,01,50,16.20
2017,08,22,01,51,16.20
2017,08,22,01,52,16.20
2017,08,22,01,53,16.20
2017,08,22,01,54,16.20
2017,08,22,01,55,16.10
2017,08,22,01,56,16.10
2017,08,22,01,57,16.10
2017,08,22,01,58,16.10
2017,08,22,01,59,16.10
2017,08,22,02,00,16.10
2017,08,22,02,01,16.10
2017,08,22,02,02,16.10
2017,08,22,02,03,16.10
2017,08,22,02,04,16.00
2017,08,22,02,05,16.00
2017,08,22,02,06,16.00
2017,08,22,02,07,16.00
2017,08,22,02,08,16.00
2017,08,22,02,09,16.00
2017,08,22,02,10,16.00
2017,08,22,02,11,16.00
2017,08,22,02,12,15.90
2017,08,22,02,13,15.90
2017,08,22,02,14,15.90
2017,08,22,02,15,15.90
2017,08,22,02,16,15.90
2017,08,22,02,17,15.90
2017,08,22,02,18,15.90
2017,08,22,02,19,15.90
2017,08,22,02,20,15.90
2017,08,22,02,21,15.80
2017,08,22,02,22,15.80
2017,08,22,02,23,15.80
2017,08,22,02,24,15.80
2017,08,22,02,25,15.80
2017,08,22,02,26,15.80
2017,08,22,02,27,15.80
2017,08,22,02,28,15.80
2017,08,22,02,29,15.80
2017,08,22,02,30,15.80
2017,08,22,02,31,15.80
2017,08,22,02,32,15.80
2017,08,22,02,33,15.80
2017,08,22,02,34,15.80
2017,08,22,02,35,15.80
2017,08,22,02,36,15.70
2017,08,22,02,37,15.70
2017,08,22,02,38,15.70
2017,08,22,02,39,15.70
2017,08,22,02,40,15.70
2017,08,22,02,41,15.70
2017,08,22,02,42,15.70
2017,08,22,02,43,15.70
2017,08,22,02,44,15.70
2017,08,22,02,45,15.70
2017,08,22,02,46,15.70
2017,08,22,02,47,15.70
2017,08,22,02,48,15.70
2017,08,22,02,49,15.70
2017,08,22,02,50,15.70
2017,08,22,02,51,15.70
2017,08,22,02,52,15.70
2017,08,22,02,53,15.70
2017,08,22,02,54,15.70
2017,08,22,02,55,15.60
2017,08,22,02,56,15.60
2017,08,22,02,57,15.60
2017,08,22,02,58,15.60
2017,08,22,02,59,15.60
2017,08,22,03,00,15.60
2017,08,22,03,01,15.60
2017,08,22,03,02,15.60
2017,08,22,03,03,15.60
2017,08,22,03,04,15.60
2017,08,22,03,05,15.60
2017,08,22,03,06,15.60
2017,08,22,03,07,15.60
2017,08,22,03,08,15.60
2017,08,22,03,09,15.50
2017,08,22,03,10,15.50
2017,08,22,03,11,15.50
2017,08,22,03,12,15.50
2017,08,22,03,13,15.50
2017,08,22,03,14,15.50
2017,08,22,03,15,15.50
2017,08,22,03,16,15.40
2017,08,22,03,17,15.40
2017,08,22,03,18,15.40
2017,08,22,03,19,15.40
2017,08,22,03,20,15.40
2017,08,22,03,21,15.40
2017,08,22,03,22,15.40
2017,08,22,03,23,15.40
2017,08,22,03,24,15.40
2017,08,22,03,25,15.40
2017,08,22,03,26,15.40
2017,08,22,03,27,15.40
2017,08,22,03,28,15.30
2017,08,22,03,29,15.30
2017,08,22,03,30,15.30
2017,08,22,03,31,15.30
2017,08,22,03,32,15.30
2017,08,22,03,33,15.30
2017,08,22,03,34,15.30
2017,08,22,03,35,15.30
2017,08,22,03,36,15.30
2017,08,22,03,37,15.30
2017,08,22,03,38,15.30
2017,08,22,03,39,15.30
2017,08,22,03,40,15.20
2017,08,22,03,41,15.20
2017,08,22,03,42,15.20
2017,08,22,03,43,15.20
2017,08,22,03,44,15.20
2017,08,22,03,45,15.20
2017,08,22,03,46,15.20
2017,08,22,03,47,15.20
2017,08,22,03,48,15.20
2017,08,22,03,49,15.20
2017,08,22,03,50,15.20
2017,08,22,03,51,15.20
2017,08,22,03,52,15.10
2017,08,22,03,53,15.10
2017,08,22,03,54,15.10
2017,08,22,03,55,15.10
2017,08,22,03,56,15.10
2017,08,22,03,57,15.10
2017,08,22,03,58,15.10
2017,08,22,03,59,15.10
2017,08,22,04,00,15.10
2017,08,22,04,01,15.10
2017,08,22,04,02,15.10
2017,08,22,04,03,15.10
2017,08,22,04,04,15.10
2017,08,22,04,05,15.10
2017,08,22,04,06,15.10
2017,08,22,04,07,15.10
2017,08,22,04,08,15.00
2017,08,22,04,09,15.00
2017,08,22,04,10,15.00
2017,08,22,04,11,15.00
2017,08,22,04,12,15.00
2017,08,22,04,13,15.00
2017,08,22,04,14,15.00
2017,08,22,04,15,15.00
2017,08,22,04,16,15.00
2017,08,22,04,17,15.00
2017,08,22,04,18,15.00
2017,08,22,04,19,15.00
2017,08,22,04,20,15.00
2017,08,22,04,21,15.00
2017,08,22,04,22,14.90
2017,08,22,04,23,15.00
2017,08,22,04,24,15.00
2017,08,22,04,25,15.00
2017,08,22,04,26,14.90
2017,08,22,04,27,14.90
2017,08,22,04,28,14.90
2017,08,22,04,29,14.90
2017,08,22,04,30,14.90
2017,08,22,04,31,14.90
2017,08,22,04,32,14.90
2017,08,22,04,33,14.90
2017,08,22,04,34,14.90
2017,08,22,04,35,14.90
2017,08,22,04,36,14.90
2017,08,22,04,37,14.90
2017,08,22,04,38,14.90
2017,08,22,04,39,14.80
2017,08,22,04,40,14.80
2017,08,22,04,41,14.80
2017,08,22,04,42,14.80
2017,08,22,04,43,14.80
2017,08,22,04,44,14.80
2017,08,22,04,45,14.80
2017,08,22,04,46,14.80
2017,08,22,04,47,14.80
2017,08,22,04,48,14.80
2017,08,22,04,49,14.80
2017,08,22,04,50,14.80
2017,08,22,04,51,14.80
2017,08,22,04,52,14.80
2017,08,22,04,53,14.80
2017,08,22,04,54,14.70
2017,08,22,04,55,14.70
2017,08,22,04,56,14.70
2017,08,22,04,57,14.70
2017,08,22,04,58,14.70
2017,08,22,04,59,14.70
2017,08,22,05,00,14.70
2017,08,22,05,01,14.70
2017,08,22,05,02,14.70
2017,08,22,05,03,14.70
2017,08,22,05,04,14.70
2017,08,22,05,05,14.70
2017,08,22,05,06,14.70
2017,08,22,05,07,14.70
2017,08,22,05,08,14.70
2017,08,22,05,09,14.70
2017,08,22,05,10,14.70
2017,08,22,05,11,14.70
2017,08,22,05,12,14.70
2017,08,22,05,13,14.70
2017,08,22,05,14,14.70
2017,08,22,05,15,14.70
2017,08,22,05,16,14.70
2017,08,22,05,17,14.70
2017,08,22,05,18,14.70
2017,08,22,05,19,14.70
2017,08,22,05,20,14.70
2017,08,22,05,21,14.70
2017,08,22,05,22,14.70
2017,08,22,05,23,14.70
2017,08,22,05,24,14.70
2017,08,22,05,25,14.70
2017,08,22,05,26,14.70
2017,08,22,05,27,14.70
2017,08,22,05,28,14.70
2017,08,22,05,29,14.70
2017,08,22,05,30,14.70
2017,08,22,05,31,14.70
2017,08,22,05,32,14.70
2017,08,22,05,33,14.70
2017,08,22,05,34,14.70
2017,08,22,05,35,14.70
2017,08,22,05,36,14.70
2017,08,22,05,37,14.70
2017,08,22,05,38,14.70
2017,08,22,05,39,14.60
2017,08,22,05,40,14.70
2017,08,22,05,41,14.60
2017,08,22,05,42,14.60
2017,08,22,05,43,14.60
2017,08,22,05,44,14.60
2017,08,22,05,45,14.60
2017,08,22,05,46,14.60
2017,08,22,05,47,14.60
2017,08,22,05,48,14.60
2017,08,22,05,49,14.60
2017,08,22,05,50,14.60
2017,08,22,05,51,14.60
2017,08,22,05,52,14.60
2017,08,22,05,53,14.60
2017,08,22,05,54,14.60
2017,08,22,05,55,14.60
2017,08,22,05,56,14.60
2017,08,22,05,57,14.60
2017,08,22,05,58,14.60
2017,08,22,05,59,14.60
2017,08,22,06,00,14.60
2017,08,22,06,01,14.50
2017,08,22,06,02,14.50
2017,08,22,06,03,14.50
2017,08,22,06,04,14.50
2017,08,22,06,05,14.50
2017,08,22,06,06,14.50
2017,08,22,06,07,14.50
2017,08,22,06,08,14.50
2017,08,22,06,09,14.50
2017,08,22,06,10,14.50
2017,08,22,06,11,14.50
2017,08,22,06,12,14.50
2017,08,22,06,13,14.40
2017,08,22,06,14,14.40
2017,08,22,06,15,14.40
2017,08,22,06,16,14.40
2017,08,22,06,17,14.40
2017,08,22,06,18,14.40
2017,08,22,06,19,14.40
2017,08,22,06,20,14.40
2017,08,22,06,21,14.40
2017,08,22,06,22,14.40
2017,08,22,06,23,14.40
2017,08,22,06,24,14.40
2017,08,22,06,25,14.40
2017,08,22,06,26,14.40
2017,08,22,06,27,14.40
2017,08,22,06,28,14.40
2017,08,22,06,29,14.40
2017,08,22,06,30,14.40
2017,08,22,06,31,14.40
2017,08,22,06,32,14.40
2017,08,22,06,33,14.40
2017,08,22,06,34,14.30
2017,08,22,06,35,14.30
2017,08,22,06,36,14.40
2017,08,22,06,37,14.40
2017,08,22,06,38,14.40
2017,08,22,06,39,14.30
2017,08,22,06,40,14.40
2017,08,22,06,41,14.30
2017,08,22,06,42,14.30
2017,08,22,06,43,14.30
2017,08,22,06,44,14.30
2017,08,22,06,45,14.30
2017,08,22,06,46,14.30
2017,08,22,06,47,14.30
2017,08,22,06,48,14.30
2017,08,22,06,49,14.30
2017,08,22,06,50,14.30
2017,08,22,06,51,14.30
2017,08,22,06,52,14.30
2017,08,22,06,53,14.30
2017,08,22,06,54,14.30
2017,08,22,06,55,14.40
2017,08,22,06,56,14.40
2017,08,22,06,57,14.40
2017,08,22,06,58,14.40
2017,08,22,06,59,14.40
2017,08,22,07,00,14.40
2017,08,22,07,01,14.40
2017,08,22,07,02,14.40
2017,08,22,07,03,14.40
2017,08,22,07,04,14.40
2017,08,22,07,05,14.40
2017,08,22,07,06,14.50
2017,08,22,07,07,14.50
2017,08,22,07,08,14.50
2017,08,22,07,09,14.50
2017,08,22,07,10,14.50
2017,08,22,07,11,14.60
2017,08,22,07,12,14.60
2017,08,22,07,13,14.60
2017,08,22,07,14,14.60
2017,08,22,07,15,14.70
2017,08,22,07,16,14.70
2017,08,22,07,17,14.70
2017,08,22,07,18,14.80
2017,08,22,07,19,14.80
2017,08,22,07,20,14.80
2017,08,22,07,21,14.90
2017,08,22,07,22,14.90
2017,08,22,07,23,14.90
2017,08,22,07,24,15.00
2017,08,22,07,25,15.00
2017,08,22,07,26,15.10
2017,08,22,07,27,15.10
2017,08,22,07,28,15.10
2017,08,22,07,29,15.20
2017,08,22,07,30,15.20
2017,08,22,07,31,15.20
2017,08,22,07,32,15.20
2017,08,22,07,33,15.30
2017,08,22,07,34,15.30
2017,08,22,07,35,15.40
2017,08,22,07,36,15.40
2017,08,22,07,37,15.40
2017,08,22,07,38,15.40
2017,08,22,07,39,15.50
2017,08,22,07,40,15.50
2017,08,22,07,41,15.60
2017,08,22,07,42,15.60
2017,08,22,07,43,15.70
2017,08,22,07,44,15.70
2017,08,22,07,45,15.80
2017,08,22,07,46,15.80
2017,08,22,07,47,15.80
2017,08,22,07,48,15.90
2017,08,22,07,49,15.90
2017,08,22,07,50,16.00
2017,08,22,07,51,16.10
2017,08,22,07,52,16.10
2017,08,22,07,53,16.20
2017,08,22,07,54,16.20
2017,08,22,07,55,16.30
2017,08,22,07,56,16.30
2017,08,22,07,57,16.30
2017,08,22,07,58,16.40
2017,08,22,07,59,16.50
2017,08,22,08,00,16.60
2017,08,22,08,01,16.70
2017,08,22,08,02,16.80
2017,08,22,08,03,16.80
2017,08,22,08,04,16.90
2017,08,22,08,05,17.00
2017,08,22,08,06,17.10
2017,08,22,08,07,17.20
2017,08,22,08,08,17.30
2017,08,22,08,09,17.40
2017,08,22,08,10,17.50
2017,08,22,08,11,17.60
2017,08,22,08,12,17.70
2017,08,22,08,13,17.80
2017,08,22,08,14,17.90
2017,08,22,08,15,18.00
2017,08,22,08,16,18.10
2017,08,22,08,17,18.20
2017,08,22,08,18,18.20
2017,08,22,08,19,18.30
2017,08,22,08,20,18.40
2017,08,22,08,21,18.40
2017,08,22,08,22,18.50
2017,08,22,08,23,18.60
2017,08,22,08,24,18.70
2017,08,22,08,25,18.80
2017,08,22,08,26,18.80
2017,08,22,08,27,18.90
2017,08,22,08,28,19.00
2017,08,22,08,29,19.10
2017,08,22,08,30,19.10
2017,08,22,08,31,19.20
2017,08,22,08,32,19.30
2017,08,22,08,33,19.30
2017,08,22,08,34,19.40
2017,08,22,08,35,19.40
2017,08,22,08,36,19.50
2017,08,22,08,37,19.60
2017,08,22,08,38,19.60
2017,08,22,08,39,19.70
2017,08,22,08,40,19.70
2017,08,22,08,41,19.80
2017,08,22,08,42,19.80
2017,08,22,08,43,19.90
2017,08,22,08,44,19.90
2017,08,22,08,45,20.00
2017,08,22,08,46,20.00
2017,08,22,08,47,20.00
2017,08,22,08,48,20.10
2017,08,22,08,49,20.10
2017,08,22,08,50,20.20
2017,08,22,08,51,20.20
2017,08,22,08,52,20.30
2017,08,22,08,53,20.30
2017,08,22,08,54,20.40
2017,08,22,08,55,20.40
2017,08,22,08,56,20.50
2017,08,22,08,57,20.60
2017,08,22,08,58,20.60
2017,08,22,08,59,20.70
2017,08,22,09,00,20.70
2017,08,22,09,01,20.80
2017,08,22,09,02,20.80
2017,08,22,09,03,20.90
2017,08,22,09,04,20.90
2017,08,22,09,05,21.00
2017,08,22,09,06,21.00
2017,08,22,09,07,21.10
2017,08,22,09,08,21.10
2017,08,22,09,09,21.20
2017,08,22,09,10,21.20
2017,08,22,09,11,21.30
2017,08,22,09,12,21.30
2017,08,22,09,13,21.40
2017,08,22,09,14,21.40
2017,08,22,09,15,21.40
2017,08,22,09,16,21.50
2017,08,22,09,17,21.60
2017,08,22,09,18,21.60
2017,08,22,09,19,21.70
2017,08,22,09,20,21.70
2017,08,22,09,21,21.70
2017,08,22,09,22,21.80
2017,08,22,09,23,21.80
2017,08,22,09,24,21.90
2017,08,22,09,25,21.90
2017,08,22,09,26,21.90
2017,08,22,09,27,22.00
2017,08,22,09,28,22.10
2017,08,22,09,29,22.10
2017,08,22,09,30,22.10
2017,08,22,09,31,22.20
2017,08,22,09,32,22.30
2017,08,22,09,33,22.30
2017,08,22,09,34,22.30
2017,08,22,09,35,22.40
2017,08,22,09,36,22.40
2017,08,22,09,37,22.50
2017,08,22,09,38,22.50
2017,08,22,09,39,22.60
2017,08,22,09,40,22.60
2017,08,22,09,41,22.70
2017,08,22,09,42,22.70
2017,08,22,09,43,22.80
2017,08,22,09,44,22.80
2017,08,22,09,45,22.80
2017,08,22,09,46,22.90
2017,08,22,09,47,22.90
2017,08,22,09,48,22.90
2017,08,22,09,49,23.00
2017,08,22,09,50,23.00
2017,08,22,09,51,23.10
2017,08,22,09,52,23.10
2017,08,22,09,53,23.10
2017,08,22,09,54,23.10
2017,08,22,09,55,23.20
2017,08,22,09,56,23.20
2017,08,22,09,57,23.20
2017,08,22,09,58,23.30
2017,08,22,09,59,23.30
2017,08,22,10,00,23.30
2017,08,22,10,01,23.30
2017,08,22,10,02,23.30
2017,08,22,10,03,23.40
2017,08,22,10,04,23.40
2017,08,22,10,05,23.50
2017,08,22,10,06,23.50
2017,08,22,10,07,23.60
2017,08,22,10,08,23.60
2017,08,22,10,09,23.60
2017,08,22,10,10,23.70
2017,08,22,10,11,23.70
2017,08,22,10,12,23.70
2017,08,22,10,13,23.80
2017,08,22,10,14,23.80
2017,08,22,10,15,23.80
2017,08,22,10,16,23.90
2017,08,22,10,17,23.90
2017,08,22,10,18,24.00
2017,08,22,10,19,24.00
2017,08,22,10,20,24.10
2017,08,22,10,21,24.10
2017,08,22,10,22,24.10
2017,08,22,10,23,24.20
2017,08,22,10,24,24.10
2017,08,22,10,25,24.20
2017,08,22,10,26,24.20
2017,08,22,10,27,24.20
2017,08,22,10,28,24.30
2017,08,22,10,29,24.40
2017,08,22,10,30,24.40
2017,08,22,10,31,24.50
2017,08,22,10,32,24.50
2017,08,22,10,33,24.60
2017,08,22,10,34,24.60
2017,08,22,10,35,24.70
2017,08,22,10,36,24.70
2017,08,22,10,37,24.80
2017,08,22,10,38,24.80
2017,08,22,10,39,24.90
2017,08,22,10,40,25.00
2017,08,22,10,41,25.00
2017,08,22,10,42,25.10
2017,08,22,10,43,25.20
2017,08,22,10,44,25.20
2017,08,22,10,45,25.20
2017,08,22,10,46,25.20
2017,08,22,10,47,25.30
2017,08,22,10,48,25.30
2017,08,22,10,49,25.30
2017,08,22,10,50,25.40
2017,08,22,10,51,25.40
2017,08,22,10,52,25.50
2017,08,22,10,53,25.60
2017,08,22,10,54,25.60
2017,08,22,10,55,25.70
2017,08,22,10,56,25.70
2017,08,22,10,57,25.70
2017,08,22,10,58,25.80
2017,08,22,10,59,25.80
2017,08,22,11,00,25.80
2017,08,22,11,01,25.80
2017,08,22,11,02,25.80
2017,08,22,11,03,25.90
2017,08,22,11,04,25.90
2017,08,22,11,05,25.90
2017,08,22,11,06,25.90
2017,08,22,11,07,25.80
2017,08,22,11,08,25.90
2017,08,22,11,09,26.00
2017,08,22,11,10,26.00
2017,08,22,11,11,26.10
2017,08,22,11,12,26.10
2017,08,22,11,13,26.20
2017,08,22,11,14,26.20
2017,08,22,11,15,26.20
2017,08,22,11,16,26.20
2017,08,22,11,17,26.30
2017,08,22,11,18,26.30
2017,08,22,11,19,26.40
2017,08,22,11,20,26.50
2017,08,22,11,21,26.60
2017,08,22,11,22,26.60
2017,08,22,11,23,26.60
2017,08,22,11,24,26.60
2017,08,22,11,25,26.50
2017,08,22,11,26,26.50
2017,08,22,11,27,26.50
2017,08,22,11,28,26.60
2017,08,22,11,29,26.60
2017,08,22,11,30,26.60
2017,08,22,11,31,26.70
2017,08,22,11,32,26.70
2017,08,22,11,33,26.70
2017,08,22,11,34,26.70
2017,08,22,11,35,26.80
2017,08,22,11,36,26.80
2017,08,22,11,37,26.80
2017,08,22,11,38,26.80
2017,08,22,11,39,26.80
2017,08,22,11,40,26.90
2017,08,22,11,41,27.00
2017,08,22,11,42,27.10
2017,08,22,11,43,27.30
2017,08,22,11,44,27.40
2017,08,22,11,45,27.50
2017,08,22,11,46,27.60
2017,08,22,11,47,27.60
2017,08,22,11,48,27.70
2017,08,22,11,49,27.70
2017,08,22,11,50,27.70
2017,08,22,11,51,27.70
2017,08,22,11,52,27.70
2017,08,22,11,53,27.70
2017,08,22,11,54,27.70
2017,08,22,11,55,27.70
2017,08,22,11,56,27.80
2017,08,22,11,57,27.80
2017,08,22,11,58,27.90
2017,08,22,11,59,27.90
2017,08,22,12,00,27.90
2017,08,22,12,01,27.90
2017,08,22,12,02,27.90
2017,08,22,12,03,27.90
2017,08,22,12,04,27.90
2017,08,22,12,05,27.90
2017,08,22,12,06,27.90
2017,08,22,12,07,27.90
2017,08,22,12,08,27.90
2017,08,22,12,09,28.00
2017,08,22,12,10,28.10
2017,08,22,12,11,28.10
2017,08,22,12,12,28.10
2017,08,22,12,13,28.20
2017,08,22,12,14,28.20
2017,08,22,12,15,28.20
2017,08,22,12,16,28.10
2017,08,22,12,17,28.10
2017,08,22,12,18,28.10
2017,08,22,12,19,28.20
2017,08,22,12,20,28.20
2017,08,22,12,21,28.20
2017,08,22,12,22,28.20
2017,08,22,12,23,28.20
2017,08,22,12,24,28.10
2017,08,22,12,25,28.10
2017,08,22,12,26,28.20
2017,08,22,12,27,28.20
2017,08,22,12,28,28.30
2017,08,22,12,29,28.30
2017,08,22,12,30,28.30
2017,08,22,12,31,28.40
2017,08,22,12,32,28.40
2017,08,22,12,33,28.50
2017,08,22,12,34,28.60
2017,08,22,12,35,28.60
2017,08,22,12,36,28.50
2017,08,22,12,37,28.40
2017,08,22,12,38,28.40
2017,08,22,12,39,28.40
2017,08,22,12,40,28.40
2017,08,22,12,41,28.50
2017,08,22,12,42,28.50
2017,08,22,12,43,28.50
2017,08,22,12,44,28.60
2017,08,22,12,45,28.70
2017,08,22,12,46,28.70
2017,08,22,12,47,28.80
2017,08,22,12,48,28.80
2017,08,22,12,49,28.80
2017,08,22,12,50,28.80
2017,08,22,12,51,28.80
2017,08,22,12,52,28.80
2017,08,22,12,53,28.80
2017,08,22,12,54,28.70
2017,08,22,12,55,28.70
2017,08,22,12,56,28.80
2017,08,22,12,57,28.80
2017,08,22,12,58,28.90
2017,08,22,12,59,28.90
2017,08,22,13,00,28.90
2017,08,22,13,01,28.90
2017,08,22,13,02,28.90
2017,08,22,13,03,29.00
2017,08,22,13,04,29.10
2017,08,22,13,05,29.10
2017,08,22,13,06,29.10
2017,08,22,13,07,29.10
2017,08,22,13,08,29.10
2017,08,22,13,09,29.10
2017,08,22,13,10,29.20
2017,08,22,13,11,29.20
2017,08,22,13,12,29.20
2017,08,22,13,13,29.10
2017,08,22,13,14,29.10
2017,08,22,13,15,29.10
2017,08,22,13,16,29.20
2017,08,22,13,17,29.20
2017,08,22,13,18,29.20
2017,08,22,13,19,29.20
2017,08,22,13,20,29.30
2017,08,22,13,21,29.20
2017,08,22,13,22,29.10
2017,08,22,13,23,29.10
2017,08,22,13,24,29.00
2017,08,22,13,25,29.00
2017,08,22,13,26,29.00
2017,08,22,13,27,29.00
2017,08,22,13,28,29.00
2017,08,22,13,29,29.10
2017,08,22,13,30,29.10
2017,08,22,13,31,29.10
2017,08,22,13,32,29.20
2017,08,22,13,33,29.30
2017,08,22,13,34,29.30
2017,08,22,13,35,29.40
2017,08,22,13,36,29.40
2017,08,22,13,37,29.40
2017,08,22,13,38,29.40
2017,08,22,13,39,29.40
2017,08,22,13,40,29.40
2017,08,22,13,41,29.40
2017,08,22,13,42,29.40
2017,08,22,13,43,29.40
2017,08,22,13,44,29.40
2017,08,22,13,45,29.40
2017,08,22,13,46,29.40
2017,08,22,13,47,29.40
2017,08,22,13,48,29.40
2017,08,22,13,49,29.40
2017,08,22,13,50,29.30
2017,08,22,13,51,29.30
2017,08,22,13,52,29.30
2017,08,22,13,53,29.30
2017,08,22,13,54,29.30
2017,08,22,13,55,29.30
2017,08,22,13,56,29.20
2017,08,22,13,57,29.20
2017,08,22,13,58,29.20
2017,08,22,13,59,29.20
2017,08,22,14,00,29.20
2017,08,22,14,01,29.10
2017,08,22,14,02,29.10
2017,08,22,14,03,29.10
2017,08,22,14,04,29.10
2017,08,22,14,05,29.20
2017,08,22,14,06,29.20
2017,08,22,14,07,29.20
2017,08,22,14,08,29.20
2017,08,22,14,09,29.20
2017,08,22,14,10,29.20
2017,08,22,14,11,29.30
2017,08,22,14,12,29.30
2017,08,22,14,13,29.30
2017,08,22,14,14,29.20
2017,08,22,14,15,29.20
2017,08,22,14,16,29.30
2017,08,22,14,17,29.30
2017,08,22,14,18,29.30
2017,08,22,14,19,29.30
2017,08,22,14,20,29.40
2017,08,22,14,21,29.40
2017,08,22,14,22,29.40
2017,08,22,14,23,29.40
2017,08,22,14,24,29.50
2017,08,22,14,25,29.50
2017,08,22,14,26,29.60
2017,08,22,14,27,29.60
2017,08,22,14,28,29.60
2017,08,22,14,29,29.70
2017,08,22,14,30,29.70
2017,08,22,14,31,29.70
2017,08,22,14,32,29.60
2017,08,22,14,33,29.60
2017,08,22,14,34,29.50
2017,08,22,14,35,29.40
2017,08,22,14,36,29.50
2017,08,22,14,37,29.40
2017,08,22,14,38,29.50
2017,08,22,14,39,29.50
2017,08,22,14,40,29.50
2017,08,22,14,41,29.50
2017,08,22,14,42,29.60
2017,08,22,14,43,29.60
2017,08,22,14,44,29.70
2017,08,22,14,45,29.80
2017,08,22,14,46,29.80
2017,08,22,14,47,29.80
2017,08,22,14,48,29.80
2017,08,22,14,49,29.80
2017,08,22,14,50,29.80
2017,08,22,14,51,29.70
2017,08,22,14,52,29.60
2017,08,22,14,53,29.60
2017,08,22,14,54,29.60
2017,08,22,14,55,29.60
2017,08,22,14,56,29.60
2017,08,22,14,57,29.60
2017,08,22,14,58,29.60
2017,08,22,14,59,29.70
2017,08,22,15,00,29.70
2017,08,22,15,01,29.70
2017,08,22,15,02,29.70
2017,08,22,15,03,29.60
2017,08,22,15,04,29.60
2017,08,22,15,05,29.60
2017,08,22,15,06,29.60
2017,08,22,15,07,29.50
2017,08,22,15,08,29.50
2017,08,22,15,09,29.50
2017,08,22,15,10,29.50
2017,08,22,15,11,29.50
2017,08,22,15,12,29.60
2017,08,22,15,13,29.50
2017,08,22,15,14,29.50
2017,08,22,15,15,29.50
2017,08,22,15,16,29.50
2017,08,22,15,17,29.50
2017,08,22,15,18,29.50
2017,08,22,15,19,29.50
2017,08,22,15,20,29.60
2017,08,22,15,21,29.60
2017,08,22,15,22,29.60
2017,08,22,15,23,29.60
2017,08,22,15,24,29.50
2017,08,22,15,25,29.50
2017,08,22,15,26,29.40
2017,08,22,15,27,29.30
2017,08,22,15,28,29.30
2017,08,22,15,29,29.30
2017,08,22,15,30,29.30
2017,08,22,15,31,29.30
2017,08,22,15,32,29.30
2017,08,22,15,33,29.30
2017,08,22,15,34,29.30
2017,08,22,15,35,29.30
2017,08,22,15,36,29.30
2017,08,22,15,37,29.30
2017,08,22,15,38,29.30
2017,08,22,15,39,29.30
2017,08,22,15,40,29.20
2017,08,22,15,41,29.20
2017,08,22,15,42,29.20
2017,08,22,15,43,29.20
2017,08,22,15,44,29.20
2017,08,22,15,45,29.20
2017,08,22,15,46,29.20
2017,08,22,15,47,29.10
2017,08,22,15,48,29.10
2017,08,22,15,49,29.10
2017,08,22,15,50,29.10
2017,08,22,15,51,29.10
2017,08,22,15,52,29.10
2017,08,22,15,53,29.10
2017,08,22,15,54,29.10
2017,08,22,15,55,29.10
2017,08,22,15,56,29.10
2017,08,22,15,57,29.10
2017,08,22,15,58,29.10
2017,08,22,15,59,29.10
2017,08,22,16,00,29.10
2017,08,22,16,01,29.10
2017,08,22,16,02,29.00
2017,08,22,16,03,29.00
2017,08,22,16,04,29.00
2017,08,22,16,05,29.00
2017,08,22,16,06,29.10
2017,08,22,16,07,29.10
2017,08,22,16,08,29.10
2017,08,22,16,09,29.00
2017,08,22,16,10,29.00
2017,08,22,16,11,28.90
2017,08,22,16,12,28.90
2017,08,22,16,13,28.80
2017,08,22,16,14,28.80
2017,08,22,16,15,28.70
2017,08,22,16,16,28.70
2017,08,22,16,17,28.70
2017,08,22,16,18,28.70
2017,08,22,16,19,28.60
2017,08,22,16,20,28.60
2017,08,22,16,21,28.60
2017,08,22,16,22,28.60
2017,08,22,16,23,28.60
2017,08,22,16,24,28.60
2017,08,22,16,25,28.60
2017,08,22,16,26,28.60
2017,08,22,16,27,28.60
2017,08,22,16,28,28.60
2017,08,22,16,29,28.60
2017,08,22,16,30,28.60
2017,08,22,16,31,28.60
2017,08,22,16,32,28.60
2017,08,22,16,33,28.60
2017,08,22,16,34,28.60
2017,08,22,16,35,28.60
2017,08,22,16,36,28.60
2017,08,22,16,37,28.70
2017,08,22,16,38,28.70
2017,08,22,16,39,28.70
2017,08,22,16,40,28.60
2017,08,22,16,41,28.60
2017,08,22,16,42,28.60
2017,08,22,16,43,28.60
2017,08,22,16,44,28.50
2017,08,22,16,45,28.50
2017,08,22,16,46,28.50
2017,08,22,16,47,28.50
2017,08,22,16,48,28.40
2017,08,22,16,49,28.40
2017,08,22,16,50,28.40
2017,08,22,16,51,28.40
2017,08,22,16,52,28.40
2017,08,22,16,53,28.40
2017,08,22,16,54,28.40
2017,08,22,16,55,28.50
2017,08,22,16,56,28.50
2017,08,22,16,57,28.50
2017,08,22,16,58,28.60
2017,08,22,16,59,28.60
2017,08,22,17,00,28.60
2017,08,22,17,01,28.60
2017,08,22,17,02,28.70
2017,08,22,17,03,28.70
2017,08,22,17,04,28.70
2017,08,22,17,05,28.70
2017,08,22,17,06,28.70
2017,08,22,17,07,28.70
2017,08,22,17,08,28.70
2017,08,22,17,09,28.70
2017,08,22,17,10,28.70
2017,08,22,17,11,28.70
2017,08,22,17,12,28.80
2017,08,22,17,13,28.80
2017,08,22,17,14,28.80
2017,08,22,17,15,28.80
2017,08,22,17,16,28.80
2017,08,22,17,17,28.80
2017,08,22,17,18,28.70
2017,08,22,17,19,28.70